Location: Killam
(52.7910°N, 111.8608°W)
Time: 11:41:43
(UTC+00:00)

AO-85 - Pass Details

Date: 07 December 2023
Orbit: 516 x 753 km, 64.8° (Epoch: 04 January)

Event Time Altitude Azimuth Distance (km) Brightness Sun altitude
Rises 01:20:40 0° 313° (NW) 2,791 ? -18.1°
Reaches altitude 10° 01:23:11 10° 328° (NNW) 1,929 ? -18.5°
Enters shadow 01:26:41 24° 21° (NNE) 1,281 ? -19.0°
